SUMZM TNCB-TNCC

Flight info

Callsign SUMZM
Flight time 0h 30m
Altitude 10000
Route CUR1R ODLAP BON1B
Aircraft PC12/L-SDFGRWY/S

Departure

Time 2026-05-08 22:21
Airport Flamingo International Airport (TNCB)

Arrival

Time 2026-05-08 22:52
Airport Hato International Airport (TNCC)
Time Latitude Longitude Altitude Speed Heading
2026-05-08 22:11 12.13253 -68.27709 24 ft 0 kts 92°
2026-05-08 22:20 12.13251 -68.27699 27 ft 7 kts 117°
2026-05-08 22:20 12.13205 -68.27727 24 ft 12 kts 270°
2026-05-08 22:20 12.13143 -68.27775 24 ft 15 kts 183°
2026-05-08 22:20 12.13110 -68.27741 24 ft 0 kts 91°
2026-05-08 22:21 12.13108 -68.27566 24 ft 56 kts 90°
2026-05-08 22:21 12.13077 -68.27063 255 ft 73 kts 92°
2026-05-08 22:21 12.13039 -68.26518 626 ft 81 kts 89°
2026-05-08 22:22 12.13038 -68.25935 961 ft 84 kts 92°
2026-05-08 22:22 12.13028 -68.25282 1323 ft 100 kts 91°
2026-05-08 22:22 12.13010 -68.24497 1720 ft 122 kts 91°
2026-05-08 22:22 12.12981 -68.23545 2093 ft 144 kts 91°
2026-05-08 22:23 12.12947 -68.22471 2460 ft 160 kts 92°
2026-05-08 22:23 12.12911 -68.21297 2822 ft 170 kts 91°
2026-05-08 22:23 12.12874 -68.20069 3189 ft 177 kts 91°
2026-05-08 22:23 12.12836 -68.18789 3546 ft 182 kts 92°
2026-05-08 22:24 12.12796 -68.17485 3904 ft 186 kts 92°
2026-05-08 22:24 12.12756 -68.16149 4272 ft 189 kts 92°
2026-05-08 22:24 12.12716 -68.14806 4646 ft 190 kts 92°
2026-05-08 22:24 12.12676 -68.13456 4994 ft 190 kts 92°
2026-05-08 22:25 12.12636 -68.12099 5354 ft 192 kts 93°
2026-05-08 22:25 12.12330 -68.10800 5713 ft 192 kts 121°
2026-05-08 22:25 12.11287 -68.09957 6082 ft 198 kts 158°
2026-05-08 22:25 12.09894 -68.09949 6434 ft 208 kts 194°
2026-05-08 22:26 12.08677 -68.10760 6777 ft 213 kts 218°
2026-05-08 22:26 12.07544 -68.11729 7128 ft 212 kts 210°
2026-05-08 22:26 12.06268 -68.12483 7485 ft 211 kts 202°
2026-05-08 22:26 12.04965 -68.13132 7841 ft 211 kts 201°
2026-05-08 22:27 12.03637 -68.13820 8204 ft 212 kts 203°
2026-05-08 22:27 12.02324 -68.14526 8572 ft 213 kts 203°
2026-05-08 22:27 12.01013 -68.15227 8942 ft 213 kts 203°
2026-05-08 22:27 11.99710 -68.15922 9249 ft 217 kts 203°
2026-05-08 22:28 11.98347 -68.16649 9502 ft 222 kts 204°
2026-05-08 22:28 11.96965 -68.17385 9755 ft 225 kts 204°
2026-05-08 22:28 11.95565 -68.18130 9885 ft 232 kts 204°
2026-05-08 22:28 11.94242 -68.19155 9884 ft 246 kts 224°
2026-05-08 22:29 11.93315 -68.20661 9884 ft 257 kts 246°
2026-05-08 22:29 11.92973 -68.22470 9880 ft 263 kts 269°
2026-05-08 22:29 11.93194 -68.24327 9884 ft 264 kts 280°
2026-05-08 22:29 11.93512 -68.26180 9886 ft 266 kts 280°
2026-05-08 22:30 11.93824 -68.28046 9885 ft 267 kts 279°
2026-05-08 22:30 11.94118 -68.29901 9887 ft 268 kts 279°
2026-05-08 22:30 11.94451 -68.31773 9884 ft 268 kts 283°
2026-05-08 22:30 11.94891 -68.33628 9884 ft 268 kts 284°
2026-05-08 22:31 11.95329 -68.35477 9885 ft 269 kts 283°
2026-05-08 22:31 11.95736 -68.37345 9886 ft 269 kts 282°
2026-05-08 22:31 11.96134 -68.39207 9884 ft 269 kts 283°
2026-05-08 22:31 11.96541 -68.41066 9887 ft 268 kts 283°
2026-05-08 22:32 11.96952 -68.42935 9885 ft 268 kts 283°
2026-05-08 22:32 11.97359 -68.44792 9886 ft 268 kts 283°
2026-05-08 22:32 11.97765 -68.46651 9884 ft 269 kts 283°
2026-05-08 22:32 11.98169 -68.48500 9886 ft 269 kts 283°
2026-05-08 22:33 11.98575 -68.50357 9889 ft 268 kts 283°
2026-05-08 22:33 11.98982 -68.52220 9891 ft 269 kts 283°
2026-05-08 22:33 11.99393 -68.54102 9889 ft 269 kts 283°
2026-05-08 22:33 11.99795 -68.55945 9891 ft 269 kts 283°
2026-05-08 22:34 12.00203 -68.57814 9893 ft 269 kts 283°
2026-05-08 22:34 12.00609 -68.59677 9893 ft 269 kts 283°
2026-05-08 22:34 12.01016 -68.61541 9894 ft 269 kts 283°
2026-05-08 22:34 12.01423 -68.63410 9894 ft 269 kts 283°
2026-05-08 22:35 12.01831 -68.65282 9897 ft 269 kts 283°
2026-05-08 22:35 12.02238 -68.67150 9895 ft 270 kts 283°
2026-05-08 22:35 12.02645 -68.69018 9896 ft 270 kts 283°
2026-05-08 22:35 12.03053 -68.70894 9900 ft 270 kts 283°
2026-05-08 22:36 12.03459 -68.72759 9898 ft 269 kts 282°
2026-05-08 22:36 12.03873 -68.74662 9637 ft 279 kts 283°
2026-05-08 22:36 12.04297 -68.76610 9312 ft 284 kts 283°
2026-05-08 22:36 12.04729 -68.78595 8990 ft 287 kts 282°
2026-05-08 22:37 12.05161 -68.80581 8667 ft 286 kts 283°
2026-05-08 22:37 12.05589 -68.82549 8356 ft 283 kts 282°
2026-05-08 22:37 12.06010 -68.84486 8040 ft 280 kts 282°
2026-05-08 22:37 12.06426 -68.86405 7726 ft 275 kts 282°
2026-05-08 22:38 12.06840 -68.88312 7417 ft 273 kts 282°
2026-05-08 22:38 12.07248 -68.90195 7114 ft 271 kts 282°
2026-05-08 22:38 12.07656 -68.92076 6809 ft 270 kts 282°
2026-05-08 22:38 12.08061 -68.93944 6501 ft 266 kts 282°
2026-05-08 22:39 12.08454 -68.95754 6198 ft 252 kts 283°
2026-05-08 22:39 12.08814 -68.97407 5873 ft 227 kts 282°
2026-05-08 22:39 12.09141 -68.98917 5557 ft 210 kts 282°
2026-05-08 22:39 12.09448 -69.00339 5239 ft 199 kts 282°
2026-05-08 22:40 12.09740 -69.01692 4925 ft 191 kts 283°
2026-05-08 22:40 12.10023 -69.02997 4610 ft 184 kts 282°
2026-05-08 22:40 12.10292 -69.04243 4293 ft 180 kts 282°
2026-05-08 22:40 12.10561 -69.05487 3980 ft 178 kts 282°
2026-05-08 22:41 12.10828 -69.06721 3670 ft 177 kts 283°
2026-05-08 22:41 12.11091 -69.07937 3419 ft 173 kts 283°
2026-05-08 22:41 12.11346 -69.09123 3182 ft 170 kts 284°
2026-05-08 22:41 12.11604 -69.10318 2940 ft 181 kts 283°
2026-05-08 22:42 12.11892 -69.11659 2705 ft 201 kts 284°
2026-05-08 22:42 12.12204 -69.13100 2523 ft 211 kts 284°
2026-05-08 22:42 12.12691 -69.14473 2508 ft 202 kts 309°
2026-05-08 22:42 12.13756 -69.15254 2512 ft 187 kts 350°
2026-05-08 22:43 12.14898 -69.15259 2484 ft 150 kts 16°
2026-05-08 22:43 12.15886 -69.15085 2298 ft 134 kts 19°
2026-05-08 22:43 12.16731 -69.14976 2133 ft 114 kts 18°
2026-05-08 22:43 12.17469 -69.14900 2015 ft 95 kts 18°
2026-05-08 22:44 12.18056 -69.14786 1880 ft 80 kts 41°
2026-05-08 22:44 12.18392 -69.14344 1890 ft 84 kts 73°
2026-05-08 22:44 12.18574 -69.13752 1953 ft 87 kts 74°
2026-05-08 22:44 12.18799 -69.13106 2062 ft 104 kts 75°
2026-05-08 22:45 12.19113 -69.12379 2043 ft 125 kts 67°
2026-05-08 22:45 12.19480 -69.11529 2045 ft 130 kts 71°
2026-05-08 22:45 12.19770 -69.10792 1904 ft 101 kts 72°
2026-05-08 22:45 12.19994 -69.10166 1811 ft 87 kts 74°
2026-05-08 22:46 12.20167 -69.09563 1647 ft 91 kts 81°
2026-05-08 22:46 12.20311 -69.08961 1605 ft 81 kts 82°
2026-05-08 22:46 12.20401 -69.08378 1596 ft 85 kts 85°
2026-05-08 22:46 12.20452 -69.07751 1563 ft 91 kts 88°
2026-05-08 22:47 12.20495 -69.07094 1563 ft 93 kts 88°
2026-05-08 22:47 12.20527 -69.06455 1625 ft 92 kts 87°
2026-05-08 22:47 12.20584 -69.05774 1511 ft 101 kts 85°
2026-05-08 22:47 12.20598 -69.05054 1483 ft 102 kts 90°
2026-05-08 22:48 12.20543 -69.04348 1522 ft 97 kts 95°
2026-05-08 22:48 12.20444 -69.03654 1531 ft 101 kts 95°
2026-05-08 22:48 12.20250 -69.02919 1338 ft 102 kts 99°
2026-05-08 22:48 12.20144 -69.02326 1230 ft 73 kts 97°
2026-05-08 22:49 12.20073 -69.01837 1010 ft 68 kts 98°
2026-05-08 22:49 12.19915 -69.00910 752 ft 67 kts 101°
2026-05-08 22:49 12.19788 -69.00427 738 ft 71 kts 98°
2026-05-08 22:50 12.19681 -68.99946 714 ft 68 kts 96°
2026-05-08 22:50 12.19587 -68.99466 658 ft 64 kts 96°
2026-05-08 22:50 12.19510 -68.99023 512 ft 65 kts 95°
2026-05-08 22:50 12.19439 -68.98574 421 ft 62 kts 99°
2026-05-08 22:51 12.19339 -68.98129 320 ft 69 kts 104°
2026-05-08 22:51 12.19233 -68.97622 262 ft 75 kts 98°
2026-05-08 22:51 12.19132 -68.97155 178 ft 61 kts 98°
2026-05-08 22:51 12.19048 -68.96757 69 ft 56 kts 94°
2026-05-08 22:52 12.18990 -68.96389 39 ft 44 kts 96°
2026-05-08 22:52 12.18926 -68.96147 41 ft 28 kts 106°
2026-05-08 22:52 12.18882 -68.95977 39 ft 22 kts 115°
2026-05-08 22:52 12.18788 -68.95934 39 ft 12 kts 192°
2026-05-08 22:53 12.18694 -68.95893 39 ft 18 kts 104°
2026-05-08 22:53 12.18680 -68.95822 39 ft 10 kts 101°
2026-05-08 22:53 12.18666 -68.95758 39 ft 9 kts 102°
2026-05-08 22:53 12.18654 -68.95702 39 ft 8 kts 102°
2026-05-08 22:54 12.18644 -68.95650 39 ft 7 kts 103°
2026-05-08 22:54 12.18633 -68.95600 39 ft 9 kts 102°
2026-05-08 22:54 12.18616 -68.95523 39 ft 14 kts 101°
2026-05-08 22:54 12.18564 -68.95446 39 ft 16 kts 172°
2026-05-08 22:55 12.18499 -68.95374 40 ft 14 kts 106°
2026-05-08 22:55 12.18462 -68.95411 40 ft 14 kts 281°
2026-05-08 22:55 12.18467 -68.95428 40 ft 0 kts 289°